Flag for Algeria Weather past 2 weeks in Constantine, Algeria

Now
82 °F

Sunny.


Feels Like: 85 °F
Forecast: 62 / 98 °F
Wind: No wind

Location: Constantine Airport

Current Time: Aug 3, 2015 at 10:09:30 AM

Latest Report: Aug 3, 2015 at 9:00 AM


Visibility: 10 mi

Pressure: 30.12 "Hg (28.28 "Hg at 557m altitude)

Humidity: 62%

Dew point: 68 °F

Location of ConstantineLocation

Historic Weather in Constantine — Graph

°F

Constantine temperature yesterday

Maximum temperature yesterday: 99 °F (at 1:30 PM)
Minimum temperature yesterday: 72 °F (at 5:00 AM)
Average temperature yesterday: 85 °F

Past Weeks' High & Low Weather Summary

 TemperatureHumidityPressure
High108 °F (Jul 30, 12:30 PM)83% (Aug 2, 6:00 AM)30.12 "Hg (Aug 2, 6:00 AM)
Low63 °F (Jul 24, 5:30 AM)13% (Jul 29, 3:00 PM)29.86 "Hg (Jul 31, 5:00 PM)
Average83 °F42%30.03 "Hg
* Reported Jul 19 9:00 AM — Aug 3 9:00 AM, Constantine, Weather by CustomWeather, © 2015

Note: Actual official high and low records may vary slightly from our data, if they occured in-between our weather recording intervals... More about our weather records

Advertising

Constantine weather history for previous 24 hours

 ConditionsComfort  
Time TempWeatherWind HumidityBarometerVisibility
9:00 AM
Mon, Aug 3
82 °FSunny.No wind62%30.12 "Hg10 mi
8:30 AM81 °FSunny.No wind66%30.12 "Hg10 mi
8:00 AM77 °FSunny.2 mph74%30.12 "Hg10 mi
7:30 AM75 °FSunny.2 mph74%30.12 "Hg10 mi
7:00 AM73 °FSunny.5 mph78%30.12 "Hg10 mi
6:30 AM70 °FSunny.3 mph83%30.09 "Hg10 mi
6:00 AM70 °FSunny.No wind83%30.09 "Hg10 mi
5:30 AM70 °FClear.2 mph83%30.09 "Hg10 mi
5:00 AM72 °FClear.No wind83%30.09 "Hg10 mi
4:30 AM70 °FClear.No wind83%30.09 "Hg10 mi
4:00 AM72 °FClear.No wind83%30.09 "Hg10 mi
3:30 AM72 °FClear.No wind83%30.09 "Hg10 mi
3:00 AM72 °FClear.7 mph83%30.09 "Hg10 mi
2:00 AM73 °FClear.7 mph78%30.09 "Hg10 mi
1:30 AM72 °FPassing clouds.2 mph78%30.09 "HgN/A
1:00 AM73 °FPassing clouds.No wind74%30.09 "HgN/A
12:30 AM75 °FPassing clouds.2 mph69%30.12 "HgN/A
12:00 AM77 °FPassing clouds.1 mph69%30.12 "HgN/A
11:30 PM
Sun, Aug 2
75 °FPassing clouds.5 mph74%30.09 "HgN/A
11:00 PM75 °FPassing clouds.5 mph74%30.09 "HgN/A
10:30 PM77 °FPassing clouds.2 mph69%30.09 "HgN/A
9:30 PM79 °FPassing clouds.3 mph65%30.09 "HgN/A
9:00 PM79 °FPassing clouds.2 mph61%30.09 "HgN/A
8:30 PM81 °FPassing clouds.2 mph58%30.09 "HgN/A
8:00 PM84 °FPassing clouds.10 mph55%30.07 "HgN/A
7:30 PM84 °FPassing clouds.10 mph55%30.07 "HgN/A
7:00 PM86 °FPassing clouds.10 mph55%30.07 "HgN/A
6:30 PM88 °FPassing clouds.15 mph52%30.07 "HgN/A
6:00 PM90 °FPassing clouds.14 mph46%30.07 "HgN/A
5:30 PM91 °FPassing clouds.13 mph44%30.07 "HgN/A
5:00 PM95 °FPassing clouds.14 mph39%30.07 "HgN/A
4:30 PM97 °FPassing clouds.16 mph39%30.04 "HgN/A
4:00 PM97 °FPassing clouds.17 mph39%30.04 "HgN/A
3:00 PM99 °FPassing clouds.18 mph35%30.04 "HgN/A
2:30 PM99 °FScattered clouds.18 mph33%30.04 "HgN/A
2:00 PM99 °FPassing clouds.17 mph35%30.07 "HgN/A
1:30 PM99 °FPassing clouds.20 mph35%30.04 "HgN/A
1:00 PM97 °FPassing clouds.16 mph37%30.07 "HgN/A
12:30 PM95 °FSunny.12 mph36%30.07 "Hg10 mi
12:00 PM95 °FSunny.12 mph39%30.07 "Hg10 mi
11:30 AM91 °FSunny.12 mph41%30.07 "Hg10 mi
11:00 AM90 °FSunny.12 mph43%30.07 "Hg10 mi
10:30 AM88 °FPassing clouds.9 mph49%30.07 "HgN/A
10:00 AM86 °FPassing clouds.6 mph49%30.07 "HgN/A
Weather by CustomWeather, © 2015

See weather overviewHow to use our weather pages